This demonstration page uses our WeatherBlox Daily Observations layout. Learn more.

Left ArrowRight Arrow

41.86663, -103.66717

Hourly Observations for February 2, 2019

Temp ( °F °C ) Dew Point ( °F °C ) Humidity (%) Winds ( mph kmh ) Pressure ( in mb ) Visibility ( mi km ) Precip ( " mm )
12:53 am 00:53 Clear 27 -2.8 21 -6.1 78 78 N 6 9 29.85 1011 10 16 N/A
1:53 am 01:53 Clear 27 -2.8 21 -6.1 78 78 NNE 5 7 29.85 1011 10 16 N/A
2:53 am 02:53 Clear 22 -5.6 18 -7.8 85 85 N N/A 29.85 1011 10 16 N/A
3:53 am 03:53 Clear 20 -6.7 16 -8.9 85 85 N N/A 29.85 1011 10 16 N/A
4:53 am 04:53 Clear 19 -7.2 16 -8.9 88 88 N N/A 29.85 1011 10 16 N/A
5:53 am 05:53 Clear 19 -7.2 16 -8.9 88 88 NE 5 7 29.86 1011 10 16 N/A
6:53 am 06:53 Clear 22 -5.6 18 -7.8 85 85 N N/A 29.84 1011 10 16 N/A
7:53 am 07:53 Sunny 24 -4.4 21 -6.1 88 88 N N/A 29.87 1012 10 16 N/A
8:53 am 08:53 Sunny 37 2.8 25 -3.9 62 62 N N/A 29.83 1010 10 16 N/A
9:53 am 09:53 Sunny 47 8.3 25 -3.9 42 42 NW 8 13 29.78 1009 10 16 N/A
10:53 am 10:53 Sunny 56 13.3 25 -3.9 30 30 WSW 8 13 29.75 1007 10 16 N/A
11:53 am 11:53 Sunny 63 17.2 23 -5 22 22 W 13 20 29.71 1006 10 16 N/A
12:53 pm 12:53 Sunny 64 17.8 24 -4.4 22 22 W 17 28 29.67 1005 10 16 N/A
1:53 pm 13:53 Sunny 63 17.2 25 -3.9 24 24 W 16 26 29.65 1004 10 16 N/A
2:53 pm 14:53 Sunny 66 18.9 26 -3.3 22 22 WSW 26 43 29.65 1004 10 16 N/A
3:53 pm 15:53 Sunny 63 17.2 26 -3.3 25 25 W 18 30 29.66 1005 10 16 N/A
4:53 pm 16:53 Sunny 54 12.2 26 -3.3 34 34 W 7 11 29.70 1006 10 16 N/A
5:53 pm 17:53 Clear 47 8.3 26 -3.3 44 44 W 8 13 29.72 1006 10 16 N/A
6:53 pm 18:53 Clear 37 2.8 23 -5 57 57 NNE 8 13 29.73 1007 10 16 N/A
7:53 pm 19:53 Clear 42 5.6 26 -3.3 53 53 N 9 15 29.70 1006 10 16 N/A
8:53 pm 20:53 Clear 42 5.6 26 -3.3 53 53 W 7 11 29.67 1005 10 16 N/A
9:53 pm 21:53 Mostly Clear 40 4.4 26 -3.3 58 58 N N/A 29.65 1004 10 16 N/A
10:53 pm 22:53 Clear 34 1.1 24 -4.4 67 67 N N/A 29.63 1003 10 16 N/A
11:53 pm 23:53 Clear 33 0.6 24 -4.4 70 70 N N/A 29.61 1003 10 16 N/A

Powered by AerisWeather